Web Car-Videos.com

 

Car-videos.com

Videos
Performance Statistics
Unit Converter
Horsepower & Torque
Speed/RPM Calculator
Tires
FAQ
Contact Us
Updates and News Feed
Advertise with Us!  new!
Link to Us


Add to My AOL

Subscribe in NewsGator Online








Performance Home  |  List of all Cars  |  Custom Statistics  |  Tracks

Indianapolis Motor Speedway
Indianpolis, Indiana
2.5 Miles

The first lap time is from a dead stop and the 2nd is taken when the car passes the starting line at the end of the 1st lap.

Car First Lap Second Lap
1.2006 Bugatti Veyron 16.4 (7MAT)1:13.01:08.7
2.1998 Mercedes-Benz CLK-GTR (6M)1:14.61:09.8
3.1994 McLaren F1 (6M)1:15.81:11.5
4.1995 Lamborghini Diablo SE 5.7 (5M)1:19.01:12.3
5.2003 Ferrari 575M Maranello F1 (5M)1:21.31:14.5
6.1993 Mazda RX-7 Twin Turbo (5M)1:23.41:17.4
7.1994 Toyota Supra Turbo (6M)1:25.41:17.9
8.2001 BMW M5 (6M)1:25.51:18.6
9.1997 Acura NSX-T (6M)1:25.61:18.4
10.2001 Holden GTS R (Aus) (6M)1:26.11:19.6
11.2002 Mitsubishi Lancer EVO VII (Jap) (5M)1:26.31:19.3
12.2004 Subaru Impreza WRX STi (USA) (6M)1:26.41:19.8
13.2003 Nissan 350Z Track (6M)1:27.21:20.4
14.1997 BMW M3 (5M)1:27.41:20.0
15.1987 Buick Regal Grand National GNX (4A)1:28.41:20.4
16.2003 Ford Mustang Mach 1 (5M)1:28.51:21.4
17.2004 Mazda RX-8 (6M)1:28.61:20.5
18.2002 Acura RSX Type-R (Jap) (6M)1:28.91:20.8
19.2003 Dodge Neon SRT-4 (5M)1:29.11:22.0
20.2005 Acura RSX Type-S (6M)1:29.21:20.8
21.2001 Audi TT Coupe Quattro 225 HP (6M)1:29.41:21.0
22.2002 Subaru Impreza WRX Sedan 17" (5M)1:29.81:23.0
23.2002 Infiniti Q45 (5A)1:30.01:21.4
24.2001 Audi TT Roadster Quattro 225 HP (6M)1:30.21:21.7
25.1993 Ford Mustang LX 5.0 Coupe (5M)1:30.41:22.9
26.2003 Volkswagen GTI VR6 (6M)1:30.51:21.7
27.2005 Pontiac Grand Prix GXP (4A)1:30.71:23.2
28.1995 Eagle Talon TSI AWD (5M)1:30.71:22.1
29.2001 BMW 330 xi (5M)1:30.81:24.1
30.1992 Subaru SVX AWD (4A)1:30.91:21.8
31.2003 Audi A6 2.7T Quattro (5A)1:31.11:22.7
32.1989 Chevrolet Camaro IROC-Z 350 (4A)1:31.11:22.7
33.1997 Honda Prelude SH (5M)1:31.41:22.6
34.2003 Mazda Protégé MazdaSpeed (5M)1:31.51:22.7
35.1997 Ford Probe GT (5M)1:31.61:21.5
36.2002 Jaguar X-Type 3.0 (5M)1:31.61:22.8
37.1989 Toyota Supra Turbo (5M)1:31.91:23.9
38.2001 Lexus IS 300 (5A)1:32.01:23.6
39.2002 Volkswagen Jetta GLS 1.8T (5M)1:32.11:22.9
40.1995 Volkswagen GTI VR6 (5M)1:32.21:23.3
41.2002 Lexus IS 300 (5M)1:32.21:23.9
42.2002 Acura RSX Type-S (6M)1:32.21:24.3
43.2003 Mazda 6 s (5M)1:32.41:24.4
44.2002 Nissan Sentra SE-R Spec V (6M)1:32.51:23.7
45.2003 BMW 530 i (5A)1:32.81:23.9
46.2003 Infiniti G35 Sedan (5A)1:33.11:25.1
47.1994 Alfa Romeo 164 Quadrifoglio (5M)1:33.21:25.3
48.1998 Mercedes-Benz E 320 (5A)1:33.31:24.7
49.1997 Audi A4 2.8 Quattro (5M)1:33.41:24.8
50.2000 Subaru Impreza 2.5 RS Sedan (5M)1:33.61:24.7
51.2001 Lincoln LS V6 (5M)1:33.61:23.8
52.1996 Chevrolet Camaro V6 (3.8) (4A)1:33.61:24.3
53.2003 Cadillac CTS (5M)1:33.91:25.4
54.2002 Subaru Impreza 2.5 RS (5M)1:34.11:25.3
55.2001 Dodge Neon R/T (5M)1:34.11:25.5
56.2000 Honda Civic SI (5M)1:34.41:27.1
57.2001 Chevrolet Monte Carlo SS (4A)1:34.41:24.9
58.2003 Hyundai Tiburon GT (6M)1:34.61:26.4
59.1997 Hyundai Tiburon FX (5M)1:34.81:25.7
60.1988 Mazda 323 GT (5M)1:34.81:26.1
61.1997 Chevrolet Cavalier Z24 (5M)1:35.01:26.1
62.2002 BMW 330 i (5A)1:35.01:27.0
63.2003 Mazda 6 i (5M)1:35.21:25.3
64.2002 Mazda Protégé MP3 (5M)1:35.51:26.0
65.1999 Chrysler 300M (4A)1:35.71:26.6
66.1994 Chevrolet Beretta Z26 (4A)1:35.91:25.7
67.1984 Toyota Supra (5M)1:36.11:26.2
68.2001 Chrysler Sebring LTD Convertible (4A)1:36.51:27.1
69.1988 Merkur XR4TI (5M)1:36.61:27.6
70.1998 Ford Escort ZX2 Sport (5M)1:36.71:28.2
71.2003 Toyota Camry XLE V6 (4A)1:37.01:27.8
72.1993 Citroen XM (4A)1:37.31:26.9
73.2001 Chrysler PT Cruiser (5M)1:37.61:27.3
74.1996 Honda Civic EX Coupe (5M)1:37.71:27.9
75.1995 Chevrolet Camaro V6 (3.4) (4A)1:38.21:27.7
76.1999 Infiniti G20 (4A)1:38.61:27.9
77.1998 Isuzu Amigo V-6 (5M)1:38.61:29.6
78.2003 Saturn L 200 (5M)1:38.71:29.8
79.1987 Pontiac Firebird 2.8 (4A)1:39.31:27.6
80.2003 Toyota Corolla LE (5M)1:39.31:29.6
81.2001 Nissan Frontier SC Crew Cab 4x4 (4A)1:39.31:28.7
82.2002 Saturn Vue V6 AWD (5A)1:39.41:29.5
83.1996 Honda Civic EX Sedan (4A)1:39.91:30.5
84.1979 Alfa Romeo Sprint Veloce (5M)1:41.01:29.9
85.1995 Chevrolet Blazer LS 4X4 (4A)1:41.71:31.5
86.2002 Jeep Liberty Limited 4x4 (4A)1:42.01:32.0
87.2003 Hummer H2 (4A)1:48.71:39.6
88.1979 Cadillac Seville Diesel (3A)1:54.81:38.5